GW3252 Weather Reports


time (UTC)temp
F
wind
direction
speed
knots
gust
knots
rain 1hr
in
rain 24hr
in
rain mn
in
humidity
%
barometer
mb
20260505070339 60 138 0.0 1.7 0.00 0.00 0.00 74 1008.2
20260505065842 60 139 0.0 1.7 0.00 0.00 0.00 73 1008.3
20260505065336 60 136 0.0 2.6 0.00 0.00 0.00 73 1008.5
20260505064821 60 140 0.0 2.6 0.00 0.00 0.00 73 1008.5
20260505064312 60 145 0.0 2.6 0.00 0.00 0.00 72 1008.6
20260505063803 60 132 0.0 0.0 0.00 0.00 0.00 72 1008.7
20260505063301 60 132 0.0 0.0 0.00 0.00 0.00 72 1008.7
20260505062747 60 132 0.0 1.7 0.00 0.00 0.00 72 1008.8
20260505062503 61 132 0.0 1.7 0.00 0.00 0.00 71 1008.7
20260505061956 61 133 0.0 0.0 0.00 0.00 0.00 71 1008.8
20260505061224 61 133 0.0 1.7 0.00 0.00 0.00 71 1008.9
20260505060703 61 133 0.0 1.7 0.00 0.00 0.00 71 1008.9
20260505060204 61 133 0.0 1.7 0.00 0.00 0.00 71 1008.8
20260505055706 61 157 0.0 1.7 0.00 0.00 0.00 71 1008.9
20260505055154 61 157 0.0 1.7 0.00 0.00 0.00 71 1008.8
20260505054909 61 154 0.0 0.0 0.00 0.00 0.00 71 1008.8
20260505054143 61 153 0.0 0.0 0.00 0.00 0.00 71 1008.9
20260505053849 61 153 0.0 0.0 0.00 0.00 0.00 71 1008.8
20260505053351 61 144 0.0 0.0 0.00 0.00 0.00 70 1008.9
20260505052606 62 144 0.0 0.0 0.00 0.00 0.00 70 1008.9
20260505052059 62 144 0.0 0.0 0.00 0.00 0.00 70 1008.9
20260505051557 62 144 0.0 0.0 0.00 0.00 0.00 70 1009.0
20260505051056 62 117 0.0 0.0 0.00 0.00 0.00 69 1009.0
20260505050548 62 265 0.0 0.0 0.00 0.00 0.00 69 1009.1
20260505041458 64 155 0.0 0.9 0.00 0.00 0.00 64 1009.1
20260505040953 65 157 0.0 1.7 0.00 0.00 0.00 63 1009.2
20260505040453 65 157 0.0 2.6 0.00 0.00 0.00 63 1009.1
20260505035952 65 151 0.9 2.6 0.00 0.00 0.00 63 1009.0
20260505035441 65 205 0.9 4.3 0.00 0.00 0.00 63 1009.0
20260505034935 65 230 0.9 4.3 0.00 0.00 0.00 62 1009.1
20260505034434 65 205 0.9 4.3 0.00 0.00 0.00 63 1009.1
20260505033933 65 204 0.9 4.3 0.00 0.00 0.00 63 1009.0
20260505033434 65 138 0.9 4.3 0.00 0.00 0.00 63 1009.1
20260505032932 65 155 0.9 4.3 0.00 0.00 0.00 62 1009.1
20260505032649 65 117 0.9 3.5 0.00 0.00 0.00 63 1009.1
20260505031926 65 159 0.9 3.5 0.00 0.00 0.00 62 1009.0
20260505031410 65 176 0.9 2.6 0.00 0.00 0.00 63 1009.0
20260505030905 65 192 0.9 2.6 0.00 0.00 0.00 63 1009.0
20260505030405 65 186 0.9 2.6 0.00 0.00 0.00 62 1009.0
20260505025859 65 192 0.9 4.3 0.00 0.00 0.00 63 1009.0
20260505025403 65 178 0.0 4.3 0.00 0.00 0.00 62 1008.9
20260505024841 65 184 0.0 2.6 0.00 0.00 0.00 62 1008.9
20260505024344 65 159 0.9 2.6 0.00 0.00 0.00 63 1008.9
20260505023839 65 129 0.0 2.6 0.00 0.00 0.00 63 1008.9
20260505023338 65 124 0.0 1.7 0.00 0.00 0.00 62 1008.8
20260505023102 65 194 0.0 0.9 0.00 0.00 0.00 62 1008.8
20260505022325 65 194 0.0 1.7 0.00 0.00 0.00 62 1008.8
20260505022045 65 198 0.0 1.7 0.00 0.00 0.00 62 1008.7
20260505021325 65 137 0.0 1.7 0.00 0.00 0.00 61 1008.7
20260505020807 66 133 0.0 1.7 0.00 0.00 0.00 60 1008.6
20260505020305 66 74 0.0 0.0 0.00 0.00 0.00 59 1008.5
20260505015805 66 74 0.0 0.0 0.00 0.00 0.00 59 1008.4
20260505015513 67 74 0.0 0.0 0.00 0.00 0.00 59 1008.4
20260505014725 67 163 0.0 0.0 0.00 0.00 0.00 59 1008.3
20260505014217 67 165 0.0 0.0 0.00 0.00 0.00 58 1008.4
20260505013706 68 150 0.0 0.0 0.00 0.00 0.00 56 1008.5
20260505013211 68 150 0.0 0.0 0.00 0.00 0.00 55 1008.6
20260505012710 69 150 0.0 0.0 0.00 0.00 0.00 55 1008.5
20260505012204 69 150 0.0 0.0 0.00 0.00 0.00 54 1008.6
20260505011704 69 150 0.0 0.0 0.00 0.00 0.00 54 1008.6
20260505011153 70 198 0.0 0.0 0.00 0.00 0.00 53 1008.6
20260505010649 70 198 0.0 2.6 0.00 0.00 0.00 52 1008.6
20260505010130 70 198 0.9 4.3 0.00 0.00 0.00 52 1008.5
20260505005627 71 214 0.9 4.3 0.00 0.00 0.00 51 1008.5
20260505005121 71 188 0.0 2.6 0.00 0.00 0.00 51 1008.5
20260505004618 71 194 0.0 2.6 0.00 0.00 0.00 50 1008.4
20260505004119 72 196 0.9 5.2 0.00 0.00 0.00 51 1008.4
20260505003606 72 209 1.7 5.2 0.00 0.00 0.00 49 1008.5
20260505003109 73 175 0.9 4.3 0.00 0.00 0.00 49 1008.5
20260505002600 73 180 0.9 3.5 0.00 0.00 0.00 48 1008.5
20260505002102 74 240 0.9 3.5 0.00 0.00 0.00 48 1008.4
20260505001552 74 323 0.9 5.2 0.00 0.00 0.00 46 1008.5
20260505001047 75 119 0.9 5.2 0.00 0.00 0.00 46 1008.4
20260505000544 75 198 1.7 7.0 0.00 0.00 0.00 45 1008.5
20260505000039 75 165 1.7 7.0 0.00 0.00 0.00 45 1008.4
20260504235535 76 138 0.9 4.3 0.00 0.00 0.00 46 1008.4
20260504235035 76 236 0.9 7.8 0.00 0.00 0.00 45 1008.5
20260504234535 76 228 1.7 7.8 0.00 0.00 0.00 44 1008.5
20260504234024 77 348 0.9 3.5 0.00 0.00 0.00 45 1008.5
20260504233523 77 199 0.9 4.3 0.00 0.00 0.00 44 1008.6
20260504233246 77 209 2.6 6.1 0.00 0.00 0.00 43 1008.6
20260504232522 78 223 2.6 7.0 0.00 0.00 0.00 42 1008.6
20260504232025 78 301 2.6 8.7 0.00 0.00 0.00 42 1008.7
20260504231521 78 184 2.6 8.7 0.00 0.00 0.00 42 1008.6
20260504231019 78 236 2.6 7.8 0.00 0.00 0.00 43 1008.8
20260504230514 79 141 2.6 7.0 0.00 0.00 0.00 43 1008.8
20260504230016 79 257 1.7 6.1 0.00 0.00 0.00 42 1008.7
20260504225511 79 156 1.7 6.1 0.00 0.00 0.00 43 1008.7
20260504225010 79 145 2.6 6.1 0.00 0.00 0.00 41 1008.7
20260504224512 79 276 2.6 9.6 0.00 0.00 0.00 40 1008.7
20260504224014 80 267 3.5 11.3 0.00 0.00 0.00 39 1008.7
20260504223512 80 199 2.6 11.3 0.00 0.00 0.00 39 1008.8
20260504223010 80 190 1.7 7.8 0.00 0.00 0.00 41 1008.8
20260504222730 80 188 1.7 7.8 0.00 0.00 0.00 42 1008.8
20260504222001 80 355 1.7 7.8 0.00 0.00 0.00 44 1008.6
20260504221500 80 217 1.7 6.1 0.00 0.00 0.00 41 1008.8
20260504221425 80 336 2.6 7.8 0.00 0.00 0.00 43 1008.7
20260504221046 80 336 2.6 7.0 0.00 0.00 0.00 42 1008.7
20260504215955 80 244 3.5 9.6 0.00 0.00 0.00 42 1008.7
20260504215451 80 150 2.6 9.6 0.00 0.00 0.00 42 1008.6
20260504214944 80 220 2.6 10.4 0.00 0.00 0.00 43 1008.7
20260504214441 80 264 3.5 11.3 0.00 0.00 0.00 43 1008.7
20260504213936 80 180 2.6 11.3 0.00 0.00 0.00 40 1008.7
20260504213431 81 146 2.6 9.6 0.00 0.00 0.00 43 1008.8
20260504212931 81 161 2.6 9.6 0.00 0.00 0.00 40 1008.8
20260504212430 81 192 2.6 8.7 0.00 0.00 0.00 45 1008.8
20260504211928 81 310 3.5 8.7 0.00 0.00 0.00 42 1008.9
20260504211430 81 146 2.6 7.8 0.00 0.00 0.00 42 1009.0
20260504210933 81 178 2.6 15.6 0.00 0.00 0.00 45 1009.1
20260504210650 80 115 3.5 15.6 0.00 0.00 0.00 43 1009.1
20260504210152 80 194 3.5 8.7 0.00 0.00 0.00 40 1009.0
20260504205426 81 247 2.6 8.7 0.00 0.00 0.00 44 1009.1
20260504204933 80 312 3.5 9.6 0.00 0.00 0.00 46 1009.2
20260504204645 80 281 3.5 9.6 0.00 0.00 0.00 44 1009.2
20260504204151 80 255 2.6 8.7 0.00 0.00 0.00 43 1009.2
20260504203641 80 202 3.5 12.2 0.00 0.00 0.00 44 1009.3
20260504203406 80 93 3.5 13.0 0.00 0.00 0.00 42 1009.4
20260504202407 80 175 3.5 13.0 0.00 0.00 0.00 43 1009.5
20260504201908 80 172 3.5 10.4 0.00 0.00 0.00 43 1009.6
20260504201402 80 188 3.5 10.4 0.00 0.00 0.00 43 1009.7
20260504200905 80 217 2.6 7.8 0.00 0.00 0.00 42 1009.7
20260504200405 80 76 2.6 11.3 0.00 0.00 0.00 44 1009.9
20260504195904 80 171 3.5 11.3 0.00 0.00 0.00 42 1010.0
20260504195402 80 321 3.5 8.7 0.00 0.00 0.00 42 1009.9
20260504194904 80 294 3.5 11.3 0.00 0.00 0.00 46 1010.2
20260504194359 80 115 3.5 11.3 0.00 0.00 0.00 44 1010.3
20260504193903 80 227 3.5 9.6 0.00 0.00 0.00 42 1010.3
20260504193400 80 315 3.5 11.3 0.00 0.00 0.00 44 1010.3
20260504192856 80 85 4.3 11.3 0.00 0.00 0.00 42 1010.4
20260504192622 80 141 4.3 11.3 0.00 0.00 0.00 44 1010.5
20260504191859 80 240 3.5 11.3 0.00 0.00 0.00 46 1010.5
20260504191841 80 225 3.5 11.3 0.00 0.00 0.00 44 1010.6
20260504190857 80 234 3.5 11.3 0.00 0.00 0.00 45 1010.7
20260504190354 79 228 2.6 7.8 0.00 0.00 0.00 46 1010.8
20260504185848 79 198 2.6 7.8 0.00 0.00 0.00 49 1010.8
20260504185341 79 188 3.5 11.3 0.00 0.00 0.00 50 1010.9
20260504185103 78 168 2.6 11.3 0.00 0.00 0.00 45 1010.9
20260504184337 78 0 1.7 7.8 0.00 0.00 0.00 46 1011.0
20260504183834 78 254 2.6 9.6 0.00 0.00 0.00 45 1011.1
20260504183334 78 300 3.5 10.4 0.00 0.00 0.00 44 1011.2
20260504182839 79 309 2.6 10.4 0.00 0.00 0.00 42 1011.2
20260504182327 79 207 2.6 11.3 0.00 0.00 0.00 47 1011.3
20260504181827 79 201 3.5 11.3 0.00 0.00 0.00 43 1011.1
20260504181543 80 203 3.5 10.4 0.00 0.00 0.00 44 1011.4
20260504180824 80 269 2.6 10.4 0.00 0.00 0.00 50 1011.3
20260504180322 79 259 3.5 11.3 0.00 0.00 0.00 45 1011.3
20260504175819 79 304 3.5 11.3 0.00 0.00 0.00 47 1011.3
20260504175319 79 236 2.6 7.0 0.00 0.00 0.00 47 1011.5
20260504174816 79 247 2.6 8.7 0.00 0.00 0.00 48 1011.4
20260504174317 79 260 3.5 10.4 0.00 0.00 0.00 47 1011.6
20260504173817 78 261 3.5 10.4 0.00 0.00 0.00 48 1011.6
20260504173315 78 260 2.6 7.0 0.00 0.00 0.00 48 1011.7
20260504173043 78 187 2.6 7.8 0.00 0.00 0.00 51 1011.7
20260504172312 77 233 3.5 10.4 0.00 0.00 0.00 49 1011.6
20260504171809 77 277 3.5 10.4 0.00 0.00 0.00 46 1011.8
20260504171307 77 220 3.5 10.4 0.00 0.00 0.00 45 1012.0
20260504170801 78 286 3.5 10.4 0.00 0.00 0.00 45 1012.0
20260504170308 78 290 2.6 8.7 0.00 0.00 0.00 46 1012.0
20260504160236 75 301 2.6 9.6 0.00 0.00 0.00 57 1012.8
20260504150713 72 281 1.7 6.1 0.00 0.00 0.00 64 1013.0
20260504150213 72 240 1.7 6.1 0.00 0.00 0.00 65 1013.0
20260504141202 69 246 1.7 4.3 0.00 0.00 0.00 67 1012.9
20260504140658 68 165 0.9 4.3 0.00 0.00 0.00 68 1012.9
20260504140157 67 209 0.9 3.5 0.00 0.00 0.00 70 1013.0
20260504130640 61 263 0.0 3.5 0.00 0.00 0.00 79 1012.6
20260504130137 61 188 0.0 0.0 0.00 0.00 0.00 77 1012.6
20260504110440 57 210 0.0 1.7 0.00 0.00 0.00 77 1011.8
20260504110123 57 271 0.0 1.7 0.00 0.00 0.00 76 1011.8
20260504100557 58 158 0.9 6.1 0.00 0.00 0.00 74 1012.1
20260504081611 54 153 0.9 2.6 0.00 0.00 0.00 81 1012.3
20260504081056 54 194 0.0 1.7 0.00 0.00 0.00 81 1012.3
20260504080749 54 194 0.0 0.0 0.00 0.00 0.00 82 1012.4
20260504080632 54 195 0.0 0.9 0.00 0.00 0.00 82 1012.4